Location: Saluda
(35.2377°N, 82.3468°W)
Time: 05:27:39
(UTC+00:00)

Vanguard 2 - Pass Details

Date: 10 October 2022
Orbit: 553 x 2933 km, 32.9° (Epoch: 26 November)

Event Time Altitude Azimuth Distance (km) Brightness Sun altitude
Rises 16:41:47 0° 250° (WSW) 3,659 11.1 47.2°
Reaches altitude 10° 16:43:57 10° 248° (WSW) 2,933 10.7 47.3°
Maximum altitude 16:51:18 70° 166° (SSE) 1,611 10.7 47.5°
Drops below altitude 10° 17:03:56 10° 86° (E) 4,845 11.7 47.8°
Sets 17:08:33 0° 84° (E) 6,175 12.1 47.9°
